Theta_e
300 300 300 300 300 300 300 300 299 297 297 298 299 299 300 302 304 302 298 299 302 307 309 304 300 302 302 300 301 301 304 307 306 304 304 306 310 311 311 312 311 311 311 310 310 310 310 311 311 312 312 311 312 311 310 310 309 310 310 308 309 311 311 311 313 311 309 309 312 312 310 313 317 317 315 316 317 318 317 317 315 315 320 323 319 319 326
300 300 300 300 300 300 301 300 299 297 297 298 299 301 301 299 299 302 300 298 301 303 304 301 299 300 299 299 301 302 304 306 305 303 303 305 309 310 309 310 311 311 310 309 309 310 310 311 311 311 312 312 312 311 310 310 310 311 312 310 309 310 311 312 313 312 310 310 313 314 314 317 319 318 316 314 316 317 317 318 316 316 321 321 319 324 329
300 299 299 300 300 300 301 300 300 298 297 297 298 299 300 299 300 301 299 297 300 301 300 299 299 299 298 299 302 302 302 303 302 302 302 304 307 306 305 307 308 309 310 309 308 309 310 311 311 311 312 311 311 311 310 310 312 312 311 312 312 311 311 312 313 314 314 312 313 315 315 317 317 317 315 314 316 316 317 318 317 318 322 322 325 332 332
300 299 299 300 299 300 301 300 300 298 296 297 299 298 299 301 304 303 300 299 300 300 299 298 298 298 298 300 302 302 300 300 300 301 304 305 304 302 303 306 308 308 308 307 307 308 309 311 311 311 312 312 312 312 311 310 313 313 310 312 314 311 310 312 313 316 315 313 314 315 314 317 318 317 316 316 317 317 315 315 317 320 323 326 331 333 331
300 299 299 299 299 301 301 300 300 298 296 297 299 298 299 301 302 300 300 301 301 300 299 298 298 298 298 300 302 301 299 299 300 301 303 305 302 301 305 308 308 307 306 306 307 308 309 311 311 311 311 313 312 311 311 311 313 312 310 312 314 312 311 312 313 315 314 313 314 312 314 319 319 316 318 316 317 319 316 314 319 320 322 329 333 329 329
300 300 299 299 300 301 301 300 299 297 296 297 299 301 301 300 300 298 298 300 300 299 299 298 298 297 298 301 302 300 299 299 299 300 301 302 301 303 307 307 306 305 305 306 307 308 309 311 311 310 311 313 313 312 312 312 312 313 311 311 313 313 313 311 312 315 315 314 314 312 313 318 318 318 320 318 319 321 317 317 321 318 320 329 329 325 328
300 300 299 299 300 301 301 300 299 296 296 297 299 301 300 299 299 298 297 298 298 298 298 298 298 298 299 301 300 299 299 299 299 299 300 301 301 303 305 305 304 304 304 305 307 308 310 311 310 309 310 311 312 313 314 313 313 313 312 312 312 314 315 313 313 317 317 315 315 313 315 318 317 317 318 319 323 323 318 321 323 321 322 327 325 326 331
299 299 299 299 300 301 301 300 298 296 295 296 298 299 299 299 299 299 299 299 299 298 299 298 297 298 299 300 299 299 299 299 299 299 299 300 301 302 304 304 303 303 303 305 307 308 309 309 308 308 309 310 312 313 314 313 313 313 312 312 312 313 315 314 313 315 316 316 317 317 318 318 317 318 320 322 327 326 322 325 326 324 325 326 326 331 333
299 298 299 300 301 301 300 299 298 296 296 296 297 297 298 298 299 299 300 300 299 299 299 298 297 298 298 299 299 299 299 299 299 299 300 301 301 302 303 303 302 302 303 305 307 308 307 307 307 307 308 310 311 313 313 313 314 313 312 312 312 312 313 312 313 317 316 316 318 319 317 315 317 322 324 323 327 326 325 327 327 327 328 328 330 333 333
299 298 299 300 301 301 300 298 297 297 296 296 296 297 297 297 298 299 300 300 299 299 298 297 298 299 299 299 299 298 299 299 299 300 301 301 301 302 302 302 302 303 304 306 307 306 305 305 305 306 307 308 309 311 312 312 314 313 311 311 311 311 314 313 313 318 318 316 318 319 317 316 317 321 321 321 323 324 325 327 328 327 328 330 333 334 332
299 298 299 300 301 301 300 298 297 297 297 297 296 297 297 297 298 299 300 300 300 299 298 298 298 299 299 298 298 298 299 299 299 299 300 300 301 301 300 301 302 304 305 306 304 303 304 305 306 306 308 310 310 311 312 312 314 313 311 311 310 310 314 313 311 317 322 319 317 318 319 318 317 317 318 319 321 324 327 329 327 325 327 330 331 332 331
299 298 299 300 301 301 300 298 297 297 297 297 297 297 297 297 298 299 300 300 300 299 298 298 298 299 299 298 298 299 299 299 299 299 299 299 299 300 300 302 304 305 305 303 302 303 307 310 311 310 311 312 312 313 313 313 314 313 311 311 310 312 315 313 310 315 319 319 320 321 319 317 316 318 318 318 320 323 326 327 324 323 326 329 331 332 332
300 299 299 300 301 301 300 298 297 297 297 297 297 296 296 296 298 299 299 300 301 300 299 299 299 299 299 298 298 299 299 299 299 298 299 299 299 300 301 302 304 304 302 301 302 306 311 315 316 315 314 313 311 312 313 314 314 314 311 310 311 315 317 313 311 312 313 317 323 320 315 315 318 323 323 322 323 323 324 326 324 322 325 330 331 332 331
299 299 299 300 301 301 300 298 297 297 297 297 297 296 296 296 297 299 299 300 301 299 299 300 299 299 299 299 299 299 298 298 299 300 300 300 300 301 302 302 303 302 300 301 306 310 313 315 317 317 317 316 315 315 314 314 314 314 312 312 313 315 316 315 314 313 312 317 321 318 317 320 323 325 324 322 323 323 322 326 325 322 325 330 330 332 331
299 298 299 300 301 301 300 298 297 297 297 297 297 297 296 296 297 298 299 300 301 300 300 300 299 299 299 299 299 299 299 298 299 300 300 300 301 302 302 301 301 300 300 304 310 312 312 314 315 316 316 316 316 317 315 313 314 313 311 312 313 314 315 315 316 316 315 319 321 321 324 325 324 325 322 319 323 323 319 324 328 324 325 328 329 332 332
299 299 299 300 300 300 299 298 297 297 297 297 297 296 296 296 297 298 299 300 301 301 300 300 299 299 299 299 299 299 299 300 300 300 300 301 302 301 300 300 300 301 303 308 311 311 311 313 314 315 316 315 315 316 315 314 315 313 311 311 313 315 315 316 319 319 317 320 323 322 323 322 322 322 320 320 323 319 317 326 330 326 325 326 327 330 331
299 299 299 299 300 300 299 297 297 297 297 296 296 296 296 296 297 298 299 300 300 300 300 300 300 300 300 299 299 299 299 300 300 300 301 301 300 300 300 300 301 302 305 309 311 311 311 312 312 314 315 314 313 315 314 314 315 316 315 314 316 317 318 319 322 320 315 316 320 319 320 322 320 318 318 319 319 316 319 329 331 325 325 326 326 329 330
299 299 299 300 300 300 298 297 297 297 297 296 296 296 296 296 297 298 299 299 300 301 301 300 300 300 300 299 299 300 300 300 300 300 300 300 300 300 300 300 302 304 305 308 310 310 311 312 312 313 314 314 313 314 314 314 316 316 316 316 317 317 317 318 320 319 315 316 318 317 320 321 319 318 319 318 317 319 323 328 327 324 325 325 325 328 329
299 299 299 300 300 299 298 297 297 297 297 296 296 296 296 297 298 298 299 300 300 300 300 299 299 299 299 300 300 300 299 299 300 300 300 301 301 299 299 301 302 303 305 308 310 310 311 312 311 311 313 313 313 313 313 314 315 315 315 317 318 318 318 318 318 316 313 315 317 319 322 319 316 319 320 317 319 324 326 325 324 324 324 324 325 327 327
300 299 299 300 299 298 298 297 297 297 297 296 296 296 297 297 298 298 299 299 299 300 299 299 299 299 299 300 300 300 299 299 299 299 300 302 300 299 302 306 304 302 305 308 310 310 310 310 310 311 312 313 312 313 313 313 313 313 313 315 317 318 318 319 318 315 314 317 319 321 322 319 317 320 323 321 322 324 324 324 324 323 323 325 326 326 326
300 299 299 299 299 298 298 297 296 297 297 297 297 297 297 298 298 298 298 298 299 299 298 298 298 298 299 299 299 299 299 299 299 299 299 300 299 299 303 305 303 301 305 309 310 310 310 309 309 310 312 312 312 313 314 314 314 313 312 313 315 317 318 318 316 314 317 322 321 319 319 318 318 321 324 323 321 321 322 324 325 324 323 324 326 326 325
300 299 299 299 299 298 297 297 296 297 297 297 297 298 298 298 298 298 298 298 298 298 298 298 298 298 298 298 298 299 299 299 299 299 298 299 299 299 300 301 300 300 303 308 309 308 308 309 309 310 311 312 313 313 313 315 316 314 313 314 316 316 316 317 316 313 316 320 319 317 318 319 319 320 321 321 320 319 320 322 323 323 322 323 325 326 325
300 299 299 299 299 298 297 296 296 297 297 297 297 298 298 298 298 298 298 298 298 298 298 298 298 299 299 299 299 299 299 299 299 299 298 299 299 299 298 299 300 300 303 307 308 307 307 307 308 309 310 311 312 313 313 314 315 313 312 314 316 315 314 317 318 316 316 318 318 318 319 320 320 321 320 319 319 319 319 319 320 320 320 320 322 324 324
300 299 299 299 299 298 297 296 296 297 297 297 297 297 298 298 298 297 297 297 298 298 299 298 298 300 301 300 299 298 298 298 299 299 299 299 299 300 301 301 300 301 304 306 305 305 307 307 307 309 311 311 313 314 314 314 313 312 312 313 315 315 315 316 318 318 317 318 317 317 318 318 319 320 320 319 318 319 318 319 319 319 319 319 320 321 322
300 300 299 300 299 298 296 296 297 297 297 297 297 298 297 297 297 297 297 298 298 299 300 300 300 300 299 299 298 298 298 298 298 298 299 299 298 300 302 302 300 301 303 303 302 303 305 305 306 308 308 310 313 313 312 313 312 311 311 313 315 316 316 317 317 317 318 318 316 316 317 317 316 318 319 319 318 318 318 318 317 318 319 319 318 319 321
301 300 299 300 299 297 295 296 297 297 297 297 298 298 298 297 297 297 297 298 298 299 300 300 300 299 298 298 299 298 298 298 298 297 298 299 298 299 299 299 299 299 300 300 301 302 303 304 306 308 309 310 311 312 312 313 312 310 310 312 315 316 317 317 316 316 316 316 315 316 318 318 316 316 317 317 317 318 317 316 316 317 319 320 320 319 319
301 300 299 300 299 296 295 296 297 297 297 297 297 297 297 297 297 298 298 298 299 301 301 300 299 299 298 298 298 298 298 298 298 298 297 298 298 299 298 298 298 299 298 299 301 302 303 305 308 309 309 310 310 311 313 313 312 311 312 314 316 316 316 316 316 315 316 316 315 315 317 318 316 316 316 316 316 317 317 317 316 317 318 319 321 321 320
300 299 300 300 298 296 295 296 298 297 297 297 297 297 297 298 299 299 299 298 299 301 301 300 299 299 299 298 298 298 298 299 298 298 298 298 298 298 298 298 298 298 298 300 303 304 306 308 310 309 309 310 311 313 315 315 314 314 315 316 316 316 316 315 315 315 316 316 315 314 315 317 317 315 315 315 315 315 316 316 317 317 316 317 319 320 321
300 299 300 299 297 295 295 297 298 298 297 297 297 297 298 299 299 300 300 299 299 299 300 299 299 299 300 299 298 298 299 299 299 299 299 298 297 297 297 297 298 299 300 301 303 305 307 309 310 309 308 309 312 314 315 316 316 316 316 315 315 316 316 315 317 317 316 314 313 313 315 316 315 314 314 314 314 314 315 315 315 315 316 316 316 318 320
300 300 300 298 296 295 296 298 299 298 297 297 297 297 299 300 299 299 300 299 298 299 299 299 299 299 299 299 298 298 298 299 299 300 299 299 299 298 298 298 299 299 301 303 304 306 309 310 310 311 309 309 312 315 316 317 318 317 316 315 314 315 316 316 315 316 315 313 312 312 314 315 315 314 314 313 312 313 314 314 314 314 315 315 315 316 317
299 300 300 298 295 295 296 298 298 298 298 298 297 299 301 300 299 299 299 299 298 298 298 299 299 299 298 298 298 298 298 299 299 300 301 301 302 301 299 300 301 300 302 305 306 306 309 311 312 314 313 310 313 316 316 317 319 318 316 316 314 313 315 316 315 313 313 312 313 313 313 314 314 315 315 313 311 311 312 314 313 313 314 315 315 314 315
300 300 299 296 295 295 296 298 298 298 299 298 298 298 299 299 298 298 299 299 298 298 298 299 299 299 299 299 298 298 299 300 301 302 304 305 307 304 302 302 303 303 304 307 308 308 311 312 312 313 311 310 315 320 319 318 318 317 315 316 314 310 311 313 312 310 309 310 314 316 315 314 313 313 313 311 309 310 312 313 312 312 313 314 314 314 314
300 300 297 296 295 295 296 297 298 298 299 298 298 298 298 298 299 298 298 298 297 297 298 298 299 300 300 300 301 301 300 302 305 307 308 307 307 307 306 306 305 305 305 307 310 310 310 309 310 312 312 311 315 322 320 317 315 313 314 316 314 311 309 309 309 308 307 309 313 317 315 312 311 309 309 309 309 309 310 310 311 312 313 314 314 314 315
300 299 296 295 295 295 296 297 297 298 298 297 298 299 299 300 300 299 299 298 297 298 298 298 300 301 299 300 304 304 301 303 308 310 310 308 305 306 310 310 309 308 307 308 311 311 309 309 312 315 314 312 315 319 317 313 310 308 311 315 315 312 311 309 308 309 308 307 310 312 310 309 309 308 309 310 310 309 308 309 310 312 314 314 313 313 314
299 297 296 295 295 296 297 297 297 298 297 297 298 300 301 301 300 300 300 299 298 300 300 299 300 301 299 302 308 306 301 304 307 308 309 309 305 305 308 310 310 310 306 306 311 312 310 311 314 314 312 312 313 314 312 309 306 305 308 311 312 312 314 313 309 308 308 308 308 309 308 309 310 310 310 311 310 310 311 311 311 312 313 313 313 312 312
299 296 295 296 296 296 297 298 298 299 299 299 300 301 301 300 299 299 299 299 299 300 300 299 300 300 300 303 305 302 301 307 309 307 308 308 307 307 308 309 311 310 307 308 313 312 309 309 311 312 312 312 310 308 307 306 305 306 307 308 308 309 311 311 307 307 308 309 309 309 309 309 310 309 309 309 309 310 312 313 312 312 312 312 312 312 312
297 296 296 296 297 298 299 299 299 300 300 300 301 300 300 299 299 299 299 299 300 300 300 300 301 300 299 301 303 301 303 307 308 308 310 310 307 307 308 308 310 310 309 312 313 309 309 313 314 311 311 309 307 306 305 304 304 306 306 308 310 311 310 309 308 309 311 310 309 310 310 309 309 309 309 310 310 310 311 312 311 311 312 312 312 311 311
296 296 296 297 299 301 302 300 300 300 301 300 300 300 299 299 300 300 299 299 301 301 300 300 301 299 299 300 302 302 304 306 307 308 311 310 308 308 309 309 309 308 309 310 308 305 309 316 315 310 308 307 306 307 306 303 304 306 305 307 310 312 312 311 311 312 314 312 310 310 310 310 310 309 308 309 309 309 309 309 308 307 308 310 310 309 309
296 297 297 298 301 303 302 300 299 299 300 299 299 300 300 299 301 302 300 299 300 300 300 301 301 299 299 302 302 301 302 305 308 310 310 309 308 308 309 310 309 308 308 308 307 307 310 312 311 311 311 308 307 308 306 304 306 308 307 307 308 308 309 311 311 310 310 309 308 308 309 309 309 309 309 310 310 308 307 307 307 305 305 307 307 307 308
297 298 298 300 301 301 300 298 297 298 298 299 299 300 300 300 301 302 301 301 302 302 301 301 300 298 298 301 303 303 302 304 307 308 309 309 308 306 307 308 308 307 308 306 307 311 314 311 309 311 311 307 308 308 305 305 308 309 308 308 305 302 303 307 306 304 305 306 305 304 304 304 305 306 308 310 311 311 309 307 306 305 306 307 307 307 307
298 299 300 301 301 299 298 298 297 297 298 299 299 300 300 300 300 300 301 305 308 306 302 300 303 304 301 299 301 304 305 304 305 305 307 309 308 305 306 307 306 306 306 305 306 310 312 310 309 310 310 307 307 307 305 306 308 309 310 308 303 298 299 304 304 302 304 308 309 305 302 302 302 303 304 304 306 307 308 306 305 306 307 308 307 307 308
298 299 300 300 299 298 298 298 297 298 298 299 299 300 300 299 299 299 300 303 306 306 303 302 306 309 305 301 302 304 304 304 305 306 307 309 308 305 306 309 308 306 306 306 306 308 310 309 309 310 310 308 307 307 307 307 307 309 310 308 301 298 300 306 308 305 303 305 305 303 302 303 304 303 304 304 304 304 305 304 305 307 308 309 308 308 309
300 300 300 299 298 298 298 298 297 298 299 300 299 299 300 300 301 301 301 302 304 305 306 306 306 306 304 302 303 305 303 303 305 307 307 307 307 306 307 310 309 306 306 308 310 310 310 310 310 310 309 308 307 307 308 307 306 308 308 304 300 300 302 304 306 306 303 302 302 303 304 305 305 304 305 306 305 305 305 305 306 307 308 309 309 308 308
300 299 298 299 299 299 299 298 298 298 300 300 299 299 302 303 302 302 304 306 306 306 308 308 305 305 306 306 305 305 304 303 304 306 307 306 306 308 310 310 308 307 307 310 312 310 309 310 311 309 308 307 306 307 308 307 307 309 310 306 302 301 302 302 305 307 305 303 303 304 305 305 305 305 305 306 306 305 305 306 307 307 307 308 309 309 308
300 299 299 299 299 298 298 298 298 299 300 301 300 301 304 305 304 304 306 308 306 304 306 306 304 304 307 307 304 303 305 306 306 306 306 305 306 308 308 308 308 309 309 310 310 310 309 310 310 308 307 307 306 306 308 308 306 306 307 307 306 305 304 306 309 308 305 303 304 305 305 305 304 305 305 305 305 306 306 306 306 307 307 308 308 308 308
299 300 299 300 300 299 297 298 299 301 302 302 302 303 305 306 305 304 305 305 305 303 304 306 305 305 307 306 303 302 305 307 306 305 305 306 308 308 306 305 308 310 310 309 310 310 310 310 309 307 307 307 306 306 307 308 307 305 305 308 310 309 305 303 303 303 302 303 304 305 305 305 305 305 305 305 306 307 307 306 306 307 307 307 307 307 308
299 299 298 300 301 299 297 299 301 303 303 303 304 305 304 302 302 301 301 301 302 303 303 303 303 302 303 302 302 303 305 306 306 306 305 306 307 307 306 307 309 310 310 310 310 309 309 308 307 307 306 305 305 306 307 307 308 307 306 308 310 309 305 303 301 300 301 304 305 304 304 305 305 305 306 306 306 307 307 306 306 307 307 307 307 307 307
300 298 298 301 302 300 300 301 301 302 302 302 302 301 299 297 298 302 303 302 301 302 302 303 302 302 303 302 302 303 305 305 306 305 305 305 306 307 307 309 310 309 309 309 309 308 307 307 306 306 305 304 304 306 307 307 307 306 306 308 310 309 307 307 305 301 301 303 305 304 304 305 306 306 306 306 306 306 306 306 307 306 306 306 306 306 306
299 298 299 300 300 301 301 300 298 300 303 303 301 299 298 298 301 306 305 302 301 301 301 301 301 302 303 303 303 304 304 304 304 304 305 306 306 305 306 308 309 309 308 307 307 307 307 306 305 305 304 303 304 306 307 307 307 306 305 306 306 304 302 302 302 300 301 304 305 305 305 306 306 306 306 306 306 306 306 306 306 306 306 306 306 306 306
298 299 299 300 300 301 300 298 297 301 306 306 304 302 301 301 305 305 300 299 304 306 304 302 303 303 302 303 304 306 305 304 305 307 308 307 305 304 305 307 308 308 307 306 305 305 305 305 305 304 303 302 303 305 306 306 306 305 303 302 302 300 299 300 301 302 303 304 305 305 306 306 306 306 306 306 306 306 306 306 306 306 306 306 306 305 305
298 298 300 301 301 301 300 299 299 302 303 304 304 302 300 302 306 303 298 300 309 311 304 301 303 305 304 304 305 303 302 303 305 307 307 306 305 306 307 308 307 306 307 306 305 305 305 306 305 304 303 301 301 303 304 304 303 302 301 301 300 299 300 301 302 302 303 304 305 306 306 306 306 306 306 306 306 306 306 306 306 306 306 306 305 304 304
298 299 300 300 299 299 298 298 300 301 300 301 302 300 299 303 305 301 297 302 309 307 301 301 303 304 303 304 303 300 301 304 307 307 305 303 304 306 309 310 309 308 308 309 307 306 305 305 304 302 301 301 301 302 302 302 301 300 300 300 299 299 300 301 302 303 303 303 304 305 306 305 305 306 306 305 306 305 305 305 306 306 306 305 304 304 303
Wind_Speed
20 21 21 21 23 25 27 30 33 36 37 36 33 18 3 3 2 4 19 19 4 5 4 2 3 1 4 5 4 5 4 3 4 6 4 2 2 1 2 4 3 3 3 3 4 5 3 4 4 3 4 5 4 4 5 4 2 2 1 2 3 3 2 0 2 2 3 6 6 5 5 1 1 3 1 3 2 1 1 2 3 3 2 1 3 1 4
20 20 20 20 22 24 26 29 32 34 34 34 27 10 1 2 3 3 15 18 7 6 3 3 3 4 6 6 4 3 3 3 5 6 5 3 2 2 4 4 3 3 4 4 6 7 4 3 4 4 3 5 4 5 6 5 2 2 2 1 2 2 1 1 2 2 4 5 5 4 2 2 1 3 2 2 3 3 2 3 1 1 3 0 3 1 4
20 20 19 20 21 23 26 28 32 33 31 30 21 5 2 3 1 3 9 16 10 5 2 1 2 5 7 6 6 5 3 3 5 7 7 4 2 3 5 5 5 4 5 7 7 6 4 3 3 4 4 5 5 5 6 5 2 2 3 2 1 1 0 2 3 3 2 1 1 1 1 0 0 3 3 2 4 4 3 2 3 1 4 2 3 3 5
20 19 19 19 20 23 26 27 32 34 29 25 18 6 1 2 2 3 6 8 8 3 2 4 2 4 6 5 5 5 5 5 6 6 5 2 4 5 5 5 5 4 7 10 9 5 5 6 4 5 5 4 3 5 8 4 0 2 5 5 3 2 0 1 3 4 4 4 4 3 1 1 1 4 3 2 3 2 1 1 1 2 2 3 2 3 4
19 19 18 18 19 22 25 26 32 34 27 21 14 5 2 2 1 2 3 3 4 3 2 5 4 3 3 2 4 6 7 8 6 4 3 4 7 5 4 2 5 7 11 11 7 6 5 6 5 6 6 4 4 6 5 2 2 4 4 4 2 3 1 2 4 4 3 4 5 4 2 2 2 4 2 3 2 2 2 1 4 3 2 4 5 0 2
18 18 17 16 19 22 23 26 31 32 25 19 11 3 2 3 1 1 1 1 2 2 4 6 6 5 3 1 3 7 8 8 7 5 5 7 7 3 2 4 8 11 13 9 6 8 7 4 3 4 5 5 6 6 1 1 3 3 3 3 2 3 1 2 4 3 4 6 7 5 3 2 3 4 3 2 1 4 3 3 5 3 2 4 5 3 2
17 17 15 15 18 21 22 25 30 30 23 17 11 5 2 2 1 1 1 1 1 3 5 7 6 6 5 2 4 7 8 8 7 5 5 8 6 1 3 10 13 14 13 8 7 7 6 5 5 5 6 7 6 4 2 1 2 3 2 3 1 2 0 1 1 2 4 7 7 5 5 2 1 2 3 3 2 6 5 3 4 3 3 4 4 5 4
17 16 14 13 16 19 20 25 29 28 24 16 11 7 4 2 1 2 1 1 2 3 3 5 4 4 4 3 4 7 8 9 10 7 4 6 6 3 6 13 16 15 13 9 8 7 6 7 9 7 7 7 3 2 1 1 3 4 2 2 2 1 1 1 1 1 1 3 3 3 5 3 0 1 3 6 3 5 4 2 3 3 3 4 5 4 4
17 15 12 12 16 17 19 24 25 24 23 16 8 5 6 4 3 4 2 2 3 2 2 3 3 3 3 3 5 7 6 9 13 10 5 7 7 7 9 14 15 14 14 11 11 12 12 13 14 11 10 7 3 2 2 1 4 4 1 1 1 1 1 2 2 3 1 2 3 1 3 2 0 2 6 7 3 3 3 2 3 3 3 6 6 4 4
18 14 9 11 15 15 18 23 21 19 20 15 6 4 8 7 5 4 3 3 2 3 4 3 2 2 2 4 7 7 8 9 10 9 4 5 8 8 8 12 11 11 14 15 14 16 17 17 15 11 9 9 7 6 6 5 4 3 1 1 1 0 0 1 2 2 1 3 4 3 3 3 0 2 3 4 2 1 2 2 3 3 2 3 4 3 4
18 13 8 10 14 14 17 21 18 15 17 14 7 5 7 7 5 3 2 2 0 2 3 3 2 2 4 9 10 9 11 10 6 5 5 6 9 8 8 11 9 7 11 14 15 17 16 14 11 7 6 8 8 7 8 9 6 4 2 0 1 1 0 1 1 1 1 5 5 4 5 3 2 3 1 1 2 2 1 2 2 4 3 2 3 4 5
17 13 7 10 13 13 15 18 15 13 13 12 8 5 6 7 6 3 2 2 2 2 3 4 4 5 8 11 11 10 12 11 8 7 8 10 13 11 8 8 7 7 12 17 19 18 12 6 3 3 4 6 6 6 8 9 7 5 5 4 2 1 0 2 2 1 1 4 4 6 2 3 4 4 3 3 4 4 3 3 2 3 4 4 5 7 8
16 13 6 9 12 12 13 16 13 11 11 11 9 7 6 7 5 2 1 3 3 3 5 6 6 7 8 10 11 11 11 12 12 10 10 11 12 10 6 4 5 9 14 18 19 15 8 3 2 2 2 1 1 3 7 8 6 5 6 7 4 2 2 2 1 1 0 2 4 3 2 5 5 5 4 1 0 1 1 2 2 1 4 6 7 8 9
15 11 6 8 11 11 14 16 12 10 11 10 9 7 6 5 2 2 2 2 3 4 5 6 5 5 8 11 12 11 10 11 10 7 6 6 9 10 7 6 10 13 12 12 11 7 4 3 3 3 3 4 3 1 3 3 3 2 3 7 7 3 2 1 1 1 2 2 2 1 2 3 4 3 2 2 2 1 2 1 1 2 4 5 5 6 8
13 10 6 8 11 11 15 15 11 10 11 10 9 8 6 4 2 3 2 2 5 5 3 2 3 7 10 12 11 9 8 9 9 7 6 5 6 7 7 8 15 16 9 5 4 4 2 2 4 4 4 4 3 3 3 2 2 5 5 1 5 3 1 1 1 2 2 4 2 2 4 2 3 4 4 4 4 3 2 2 2 4 5 5 5 5 6
11 10 7 8 10 12 15 14 11 10 10 10 10 8 4 2 3 3 3 2 4 4 2 3 3 6 9 8 8 7 5 6 8 8 7 5 5 8 9 10 14 13 7 4 3 3 3 3 3 3 3 4 4 3 3 4 3 3 4 3 4 3 1 2 3 3 2 4 3 1 2 0 3 4 7 6 2 1 1 4 4 6 7 8 6 5 5
11 10 8 7 10 13 15 13 11 11 10 9 9 8 3 1 3 4 3 2 2 4 5 4 2 3 5 5 5 3 2 4 5 4 5 6 8 10 11 11 11 8 5 5 4 2 4 4 3 3 1 2 3 3 3 4 4 2 2 2 4 4 3 3 3 2 2 3 1 0 1 1 1 4 8 7 3 3 4 4 3 5 7 8 7 5 6
10 9 8 7 10 13 13 11 11 11 10 8 8 6 2 0 2 4 3 2 3 4 4 2 1 2 5 5 5 3 1 4 4 3 5 6 5 6 9 9 7 5 4 5 4 4 6 5 4 4 2 1 1 3 3 4 3 3 3 2 2 2 2 2 2 2 2 2 1 1 2 2 2 4 8 7 3 4 4 1 4 4 6 6 6 5 5
10 9 7 7 10 13 11 10 10 10 8 8 8 6 3 0 1 4 3 2 3 3 4 3 5 8 8 5 5 3 1 3 4 4 5 4 3 7 10 5 2 3 4 3 3 4 5 5 4 3 3 2 1 2 4 3 2 2 3 2 1 2 2 2 2 2 2 2 1 1 1 2 3 6 8 5 1 2 1 3 3 3 5 5 5 4 4
10 9 8 8 11 11 9 9 9 8 6 6 7 7 3 1 1 4 5 3 3 5 8 9 10 11 8 5 5 4 2 2 3 2 3 4 4 9 8 3 1 4 4 3 5 4 3 5 5 2 3 4 2 2 3 2 1 2 4 3 2 1 1 1 1 1 2 2 2 2 0 2 4 7 6 2 2 1 3 2 1 2 4 4 3 4 4
10 9 8 9 10 10 8 8 8 7 5 4 6 7 4 1 2 8 9 7 4 4 5 5 7 11 13 12 13 12 9 7 7 5 3 4 3 4 4 4 3 3 3 3 5 3 2 4 4 2 3 3 2 2 6 4 1 1 2 1 2 2 1 1 0 1 2 3 2 1 2 4 4 4 2 1 1 2 2 1 1 2 3 3 2 3 5
10 9 9 9 10 8 7 8 7 6 5 4 5 7 6 6 8 11 13 10 7 9 13 17 19 22 25 25 25 24 21 21 21 15 7 3 2 2 3 5 4 2 2 2 2 2 3 3 3 3 4 3 2 3 5 3 2 3 2 0 2 4 2 1 1 0 1 1 1 3 4 4 3 1 1 2 3 4 3 2 1 1 2 2 2 3 4
10 10 10 10 9 7 6 7 6 5 5 5 5 7 9 11 13 13 13 11 9 12 20 21 19 20 20 16 13 14 17 21 26 24 15 6 3 3 4 4 3 3 2 2 2 2 3 2 2 3 4 3 3 3 3 1 1 4 4 1 1 4 4 1 2 0 1 0 3 4 3 4 4 4 4 5 5 5 5 4 3 3 3 3 3 3 3
10 10 10 9 8 7 6 6 5 5 5 6 7 9 10 13 14 13 11 6 4 6 8 6 4 7 8 7 9 12 14 16 20 23 21 16 6 3 3 4 3 2 2 2 3 2 2 3 2 2 3 4 3 3 2 1 2 3 4 2 2 4 5 3 2 1 1 2 6 7 5 7 7 6 6 8 8 7 5 4 3 3 3 4 5 5 5
11 10 10 8 7 7 6 5 5 6 6 7 8 9 12 14 13 12 8 4 3 3 3 3 4 6 8 14 20 19 15 13 13 16 21 24 19 10 6 4 3 3 3 3 4 3 2 3 2 2 4 4 2 2 2 2 3 4 4 3 3 4 4 3 3 3 1 1 5 6 5 9 11 8 6 7 8 8 8 6 4 2 4 6 6 6 6
11 10 9 7 7 7 6 5 5 6 7 8 9 11 13 16 15 12 8 6 4 3 2 4 7 9 14 20 22 16 10 9 11 13 19 25 28 26 18 10 7 7 5 4 3 2 2 2 2 2 3 2 2 2 2 1 2 3 3 3 4 4 4 3 3 3 1 2 6 7 5 7 11 9 7 7 6 6 9 10 9 7 6 7 7 7 6
11 10 8 7 8 8 6 5 4 5 7 8 10 12 15 17 16 12 8 5 2 2 2 2 6 14 19 19 16 14 13 12 12 15 19 23 27 29 22 13 8 6 5 3 2 2 1 1 2 2 3 2 2 2 2 1 0 1 2 5 5 4 5 5 3 3 3 3 5 6 3 3 6 7 8 8 7 7 9 10 9 8 7 6 6 7 8
11 10 8 7 7 7 5 3 3 6 7 7 10 13 13 12 11 8 6 6 3 1 2 3 7 15 17 15 16 19 17 14 12 14 19 22 24 24 19 12 6 3 2 3 2 1 1 2 2 2 2 2 2 2 2 1 1 1 3 5 5 4 5 5 3 3 2 3 4 3 1 2 4 6 7 7 6 7 8 7 6 6 7 7 5 6 8
11 10 8 7 7 6 4 3 4 5 6 8 11 10 5 3 4 3 3 5 3 3 3 4 6 7 8 13 20 22 19 14 12 14 17 18 19 19 16 11 6 4 3 2 2 2 3 3 3 2 2 1 2 2 3 2 2 3 5 6 4 3 4 5 4 2 2 4 5 4 2 3 4 6 7 7 6 6 6 5 6 7 7 7 6 7 8
11 10 8 7 6 6 5 3 3 5 7 10 10 6 2 2 3 2 6 5 1 2 2 3 4 4 6 10 14 17 20 20 16 13 13 12 12 14 14 10 5 4 3 2 2 2 3 2 2 2 3 2 0 1 2 2 2 3 5 7 6 5 5 5 4 2 1 3 4 3 3 4 4 4 7 8 8 7 6 6 7 8 7 7 7 7 7
11 10 7 7 6 6 5 4 3 5 9 9 5 2 1 1 0 4 6 3 4 4 1 2 4 4 5 6 6 11 20 22 16 12 9 6 6 9 11 9 5 4 4 3 2 2 2 2 2 2 2 0 2 2 1 2 2 4 6 7 6 5 5 4 4 3 1 0 1 3 5 5 4 4 6 8 9 8 6 6 8 8 7 8 8 8 7
11 9 7 6 6 5 5 4 4 6 9 9 7 5 5 6 6 6 5 4 6 4 1 2 4 3 3 5 6 10 15 15 9 7 7 3 0 2 6 6 4 4 4 3 1 2 2 2 2 3 2 2 3 2 2 3 3 4 6 6 5 5 5 4 4 4 3 1 1 3 6 6 5 4 4 6 7 7 6 7 8 10 11 11 11 11 12
10 8 7 6 5 5 5 5 5 7 10 12 13 11 8 7 7 8 9 8 6 2 2 1 4 3 2 5 6 7 9 7 4 4 4 3 1 1 1 1 1 2 3 2 2 2 1 1 1 3 3 1 3 3 2 3 5 6 6 4 3 4 4 4 4 5 6 4 3 4 3 1 2 3 3 4 6 7 7 8 9 10 12 11 11 11 10
10 8 6 5 5 4 5 5 6 8 10 11 10 6 2 1 3 5 8 8 3 0 1 0 2 3 3 4 4 5 7 5 3 3 4 3 2 2 1 1 1 1 2 2 1 1 2 1 1 2 3 3 3 3 2 6 9 10 8 5 4 4 4 5 6 6 5 5 5 5 2 1 1 3 5 6 7 8 9 10 9 9 10 9 8 8 7
10 8 6 5 4 5 5 6 7 7 7 7 5 1 1 1 1 1 5 6 3 1 1 0 1 3 4 4 3 5 7 5 2 2 2 3 3 2 0 1 2 1 1 1 1 2 2 1 1 1 3 3 3 2 3 7 12 12 9 7 7 6 4 4 5 5 5 5 5 5 5 5 5 5 6 6 6 7 8 8 8 8 8 7 7 7 6
9 6 5 5 4 5 5 5 6 5 3 3 2 1 1 0 1 3 4 4 2 1 1 0 1 2 1 1 4 5 7 5 3 2 2 2 4 2 2 2 2 2 0 1 1 2 2 1 2 2 3 3 2 2 5 7 9 10 8 6 6 5 4 3 3 3 5 7 7 6 6 7 6 5 5 5 6 6 7 8 8 8 8 7 7 7 6
8 7 6 5 4 2 3 3 4 3 2 1 0 1 1 1 3 4 2 1 1 2 2 1 2 2 1 2 4 4 5 4 3 3 3 2 3 2 2 3 2 2 2 3 2 2 2 1 3 3 2 1 1 5 6 5 6 7 6 6 4 3 4 2 2 4 6 7 7 6 6 7 6 5 5 6 6 6 7 7 6 6 6 6 6 6 6
9 8 6 4 2 0 1 3 2 1 0 2 2 1 0 1 2 2 1 1 2 2 1 1 3 2 1 2 4 2 2 2 2 3 2 2 2 2 2 2 1 2 2 2 3 1 2 3 4 4 1 2 3 4 6 7 5 4 4 6 6 3 3 3 3 5 6 5 5 5 5 6 6 5 5 5 5 5 5 4 4 5 5 5 5 6 7
11 8 5 3 2 1 2 3 3 3 2 2 1 0 1 1 2 1 1 0 1 1 1 2 3 2 3 3 5 3 2 1 3 4 3 2 2 2 2 1 2 1 2 2 3 1 3 2 3 3 2 4 6 6 7 8 6 5 5 5 6 5 4 4 4 5 5 3 1 1 2 4 4 4 4 4 5 5 4 4 5 6 6 7 8 8 8
10 7 3 2 2 3 4 4 2 2 2 1 1 1 1 1 1 1 0 1 1 1 2 2 2 2 3 3 4 3 2 1 2 2 2 2 1 1 1 1 1 1 2 2 3 2 3 1 2 3 2 4 6 7 8 7 6 5 5 5 6 7 5 5 5 4 4 3 3 2 3 3 3 3 4 4 4 5 5 5 5 7 9 10 11 10 8
9 6 3 3 3 4 4 2 0 1 2 1 1 1 0 1 1 1 1 1 1 3 2 1 0 3 2 3 3 3 3 2 1 1 0 2 2 1 1 2 1 1 1 2 2 2 3 3 3 1 2 4 6 6 7 7 7 7 6 4 5 7 7 5 6 7 5 4 4 4 4 4 5 5 5 4 4 5 5 5 5 7 10 11 10 9 10
9 7 4 3 3 3 2 1 1 1 1 1 1 1 1 1 1 1 0 1 2 2 1 2 2 3 3 4 4 3 3 1 1 2 1 2 2 0 1 2 1 2 1 2 1 3 3 2 2 2 3 5 6 6 6 6 6 7 7 5 4 6 7 5 5 7 6 5 4 4 5 6 6 7 6 6 6 5 5 5 5 6 9 9 8 9 12
9 8 4 2 2 2 1 1 1 1 1 1 1 1 1 1 1 1 1 2 1 1 1 2 2 2 2 2 2 2 2 1 1 1 0 2 2 1 2 2 2 2 1 1 2 3 2 2 1 2 4 5 5 5 5 6 6 6 7 6 4 5 6 4 3 4 5 6 6 6 6 6 6 6 6 7 7 6 5 5 5 5 7 8 9 10 11
8 5 2 1 1 1 1 0 1 1 1 1 1 1 1 2 1 1 1 2 2 1 2 2 1 2 2 2 1 1 2 1 1 1 1 1 1 2 2 1 2 1 2 3 2 1 0 1 1 3 4 5 5 5 5 6 6 6 6 6 5 5 5 4 3 3 5 6 6 6 6 5 5 6 8 8 7 5 4 4 5 5 6 8 9 10 8
5 2 2 1 1 0 1 0 0 1 2 2 2 3 3 2 2 2 3 3 2 2 3 2 2 1 3 3 0 1 1 1 1 1 1 1 2 1 1 1 1 1 3 2 1 0 0 1 2 3 5 6 6 6 5 6 6 5 5 6 5 5 5 4 3 3 4 5 5 4 4 4 5 6 8 8 7 6 5 5 5 5 7 9 10 9 7
2 1 2 2 0 1 1 1 1 1 2 3 3 3 4 4 4 4 3 2 2 3 4 2 3 2 2 2 1 1 1 1 1 1 0 2 1 2 2 0 2 3 2 1 1 1 1 3 4 4 5 6 6 6 5 5 5 5 4 4 5 4 4 4 4 3 3 3 3 3 3 4 4 4 6 8 8 8 7 6 5 5 7 10 10 9 8
1 1 2 2 1 1 1 2 3 3 3 3 4 4 4 3 3 4 3 3 3 4 3 1 1 0 2 1 1 1 1 1 1 1 1 2 0 2 1 2 2 1 1 1 1 1 2 3 4 5 6 6 6 6 5 5 5 5 5 5 5 4 4 4 4 4 3 3 3 3 4 4 3 3 5 6 7 6 5 5 5 6 8 8 8 7 6
1 1 2 1 1 2 2 3 2 2 2 3 3 3 2 1 2 4 4 3 3 2 1 1 0 1 2 1 1 1 2 1 1 1 1 1 1 2 2 2 1 1 1 1 1 1 2 4 4 5 6 6 6 5 5 5 6 7 7 5 5 5 4 4 4 4 3 3 2 2 2 1 2 3 4 4 5 5 6 5 5 6 6 6 5 5 5
1 1 1 1 1 1 2 2 0 2 3 3 2 2 1 2 3 5 4 2 1 2 2 2 2 1 2 1 1 1 1 1 1 1 2 3 2 0 1 1 1 2 1 1 1 2 3 4 4 5 6 6 5 5 4 5 6 7 6 6 7 6 5 4 4 5 5 4 2 1 0 2 3 4 4 3 3 4 6 5 4 4 4 4 5 5 5
1 1 1 1 1 1 1 1 1 2 4 3 3 2 2 1 3 4 2 1 1 1 2 2 1 1 1 1 2 2 1 1 1 2 2 1 0 1 1 1 1 2 2 2 2 3 4 4 4 5 6 6 5 5 5 5 6 6 8 9 9 7 6 5 4 6 7 5 1 2 3 4 4 3 3 3 3 3 4 3 2 3 4 5 6 6 6
0 0 1 1 2 2 1 2 2 3 3 3 2 3 2 1 3 3 2 1 3 3 3 0 0 2 3 2 1 1 1 0 2 2 0 1 1 1 1 1 2 2 2 3 3 3 3 4 3 4 6 6 5 5 5 5 6 8 11 13 11 7 4 5 6 7 7 4 1 3 4 4 3 3 4 4 5 4 3 3 2 2 3 4 5 6 7
1 1 1 1 1 2 2 2 1 3 3 3 3 3 2 2 4 3 1 3 4 2 0 1 2 3 2 1 1 0 0 1 2 1 1 2 1 2 3 3 3 3 3 3 4 3 3 3 3 4 5 5 6 6 6 5 7 9 12 14 13 9 5 6 7 7 6 3 2 3 4 3 2 4 5 6 6 5 4 3 3 2 2 2 4 5 7
Wind_Direction
335 337 342 346 349 350 350 352 353 356 358 354 350 348 8 48 280 319 5 4 15 86 48 337 17 350 288 306 279 265 286 288 304 318 332 326 289 297 292 266 257 269 273 293 304 305 290 263 261 283 293 276 245 244 271 276 224 214 254 253 212 156 126 319 295 288 309 324 333 303 252 195 30 297 300 92 124 142 148 210 262 306 313 12 72 32 267
335 337 342 345 348 350 351 351 350 354 360 354 348 349 117 346 260 283 9 16 47 91 44 329 340 327 312 315 300 274 264 289 314 314 311 314 321 319 297 274 258 284 303 296 295 302 291 252 266 282 290 286 266 257 277 288 235 206 226 198 210 228 168 81 14 14 4 347 348 353 346 73 82 278 287 114 114 61 341 266 314 333 276 18 96 180 259
335 337 341 344 349 352 351 349 347 350 356 355 350 344 242 335 280 252 359 24 49 99 107 32 329 327 333 321 308 313 297 289 313 305 283 264 313 318 288 280 275 284 315 307 293 288 255 237 291 290 279 289 282 286 302 297 227 240 337 30 106 211 165 110 115 123 107 291 232 143 341 27 206 269 266 148 94 47 336 298 46 10 281 326 121 204 265
333 335 340 345 352 354 350 347 346 347 354 356 351 342 314 9 28 310 335 18 44 92 106 56 18 329 343 321 306 338 337 310 309 302 282 291 358 322 277 285 294 300 328 319 305 293 236 231 272 291 288 289 286 316 327 328 57 18 360 14 70 102 93 169 162 160 164 195 220 223 225 116 216 282 289 114 93 57 82 54 50 212 296 327 221 210 298
333 335 340 346 352 353 351 348 346 347 354 358 350 348 65 54 51 2 336 343 19 38 37 29 11 336 344 316 313 345 338 324 324 317 308 340 341 307 253 296 335 327 331 324 306 304 280 244 259 287 287 279 297 322 328 349 29 26 9 359 68 101 355 220 188 204 204 207 236 247 229 149 209 272 308 103 94 354 77 148 242 210 50 318 274 206 333
336 337 341 350 353 351 351 350 348 350 356 2 5 16 56 48 144 158 37 328 356 358 339 349 346 327 316 254 331 343 341 339 339 324 319 330 334 327 291 319 331 326 327 323 300 307 309 272 264 298 300 305 323 332 351 98 32 35 12 346 71 109 285 209 185 238 242 231 246 245 220 209 213 262 298 89 49 322 308 239 248 216 155 262 286 338 295
335 335 342 354 354 351 353 351 350 355 359 11 37 53 17 52 101 279 34 91 255 267 296 323 333 327 325 344 354 341 333 336 329 304 312 320 318 337 305 310 321 323 318 309 295 305 313 297 302 323 315 311 317 319 318 4 27 52 17 327 62 107 284 204 173 284 244 234 247 233 217 231 164 265 310 54 37 297 286 272 287 267 217 248 312 337 289
334 332 340 356 355 351 354 352 352 359 4 18 53 55 19 54 25 311 308 266 270 255 287 321 329 326 336 347 349 339 329 331 328 308 279 289 294 291 299 309 318 315 308 301 288 288 294 288 288 295 298 299 300 281 257 282 348 15 31 345 354 27 350 357 40 48 231 251 264 225 218 237 73 45 22 49 31 313 320 353 337 334 314 317 346 353 304
333 329 339 359 354 349 355 354 354 1 7 17 45 34 13 11 325 316 308 299 317 311 308 334 325 320 350 349 340 339 330 331 329 312 248 231 265 293 310 314 317 312 307 306 301 306 310 295 282 273 269 267 256 245 237 298 346 350 36 80 351 342 344 358 43 79 97 307 333 309 211 210 55 12 15 24 19 347 356 344 334 356 343 336 354 7 329
334 331 347 0 351 348 354 355 356 1 8 18 30 2 7 3 333 324 317 295 324 333 322 338 332 306 330 331 330 323 308 316 325 315 286 243 256 271 302 310 311 310 309 311 314 316 309 293 283 272 258 253 246 246 259 273 291 301 307 56 55 108 70 2 25 80 169 311 339 20 80 80 46 305 359 7 351 347 330 301 328 6 10 347 352 342 310
331 332 349 354 345 347 351 353 358 360 1 13 19 351 357 359 335 321 324 298 299 7 336 337 339 317 319 323 323 313 305 313 315 294 301 297 283 287 304 303 298 294 300 307 314 310 297 282 274 258 242 246 244 240 253 262 256 234 225 94 56 261 181 68 41 108 248 303 332 38 56 54 245 251 246 228 260 271 267 274 349 18 15 327 314 307 309
325 329 344 347 341 343 347 351 360 358 351 359 6 354 354 354 333 310 327 311 310 356 337 315 305 305 311 316 317 314 311 311 301 276 267 276 287 295 296 295 295 296 304 313 317 315 309 295 269 234 222 234 243 247 256 262 258 235 217 198 180 241 199 69 57 114 252 320 21 57 39 254 253 287 285 235 232 221 226 272 319 17 11 1 352 335 331
320 326 339 343 337 336 342 349 355 353 345 347 352 350 349 350 335 298 306 300 300 323 317 304 295 292 301 310 316 315 307 298 291 278 261 263 280 291 283 268 282 295 308 315 315 317 326 337 327 294 268 269 261 252 256 260 260 239 216 206 196 167 126 112 57 127 120 17 54 88 240 264 304 327 321 295 294 130 148 272 279 352 10 10 360 341 335
315 324 333 338 334 330 336 344 348 346 342 340 342 343 342 350 349 310 313 309 298 299 297 294 296 299 307 318 323 318 311 310 304 282 257 256 272 283 283 279 289 298 308 312 313 325 345 347 347 339 338 12 21 307 285 275 265 279 240 211 192 148 125 148 360 45 123 90 48 350 335 334 327 329 337 330 313 239 154 162 243 328 14 7 344 341 341
313 322 324 329 330 324 329 337 342 342 341 338 336 335 334 348 348 300 288 303 306 303 274 228 293 320 320 322 326 322 321 331 330 308 288 261 252 269 277 289 300 306 310 312 322 344 346 343 360 357 356 7 352 308 328 341 328 355 2 180 165 134 136 162 60 30 87 90 54 12 25 356 275 275 292 281 257 246 196 100 360 334 3 1 340 351 349
310 313 307 319 324 319 324 334 337 338 340 335 331 331 334 8 3 319 292 292 302 299 246 216 272 313 313 311 316 319 322 333 334 323 312 304 301 304 301 304 309 310 316 335 339 344 352 360 358 345 350 354 327 300 319 333 337 12 41 83 99 71 58 103 84 31 40 81 90 93 86 248 254 272 284 287 290 290 38 55 358 322 343 349 341 350 352
305 302 298 311 316 314 323 334 336 335 339 333 325 326 334 33 3 333 305 270 282 280 269 264 275 306 307 308 311 312 305 314 325 328 314 315 320 316 315 323 322 317 341 359 348 351 10 10 354 333 340 338 315 303 308 324 337 353 2 26 46 37 15 41 68 61 72 85 74 224 205 236 240 254 278 299 343 44 53 46 315 304 337 341 332 341 353
299 296 297 307 310 314 325 335 334 333 337 335 323 319 323 8 333 322 300 266 289 281 250 199 103 299 291 296 300 299 289 300 306 300 290 292 298 305 317 327 324 325 2 8 353 360 9 11 358 337 325 282 310 320 316 318 333 340 318 326 31 45 9 30 96 97 74 87 77 306 267 273 276 279 293 309 349 60 69 107 244 287 331 328 320 332 349
291 292 292 295 304 312 324 334 331 332 337 336 326 323 327 181 314 332 320 257 260 272 263 269 284 282 278 273 277 282 277 275 282 300 301 288 295 315 314 304 283 322 342 347 347 1 4 359 352 320 304 325 345 325 315 311 317 328 319 322 37 61 20 21 68 67 63 98 116 360 293 258 287 309 310 315 36 81 139 218 243 298 318 314 321 333 340
285 286 282 287 301 313 326 330 327 329 335 329 324 329 337 155 98 353 339 297 270 282 281 270 258 255 254 241 241 258 290 280 258 254 260 263 324 344 335 322 344 334 325 340 1 10 2 347 345 328 311 325 323 308 318 311 269 318 323 332 360 28 41 15 21 96 71 47 39 47 224 256 312 329 327 346 82 170 219 235 290 310 303 310 333 345 345
278 279 276 283 297 309 323 324 321 321 317 303 314 325 326 206 324 336 330 315 296 288 284 265 251 254 256 252 249 248 247 243 235 225 235 263 315 4 337 306 332 345 331 342 354 359 355 340 332 317 305 302 286 323 326 319 310 318 295 283 344 358 45 86 213 188 81 47 22 263 257 280 305 324 316 313 323 263 238 238 273 294 306 315 343 2 357
272 273 271 279 292 305 315 316 315 312 300 285 300 310 305 300 313 326 327 311 275 259 269 276 281 280 276 272 266 257 250 248 248 245 244 276 289 228 243 283 295 259 272 337 349 337 346 343 313 303 304 294 287 310 312 307 341 348 337 222 19 359 355 120 142 149 99 105 267 273 281 292 305 327 320 334 359 359 353 355 343 330 329 323 349 5 359
266 267 268 278 290 300 307 307 305 298 285 273 277 288 298 304 309 322 326 307 273 266 271 274 284 289 283 282 280 268 257 252 249 245 235 227 265 255 233 255 270 238 245 340 358 325 317 309 293 299 299 290 294 307 310 317 341 338 336 311 302 336 342 24 120 199 237 286 324 327 342 356 14 39 30 21 25 13 4 18 18 351 342 347 358 3 1
261 262 267 278 288 294 297 297 292 286 279 271 271 281 292 297 304 321 328 307 280 292 284 273 284 286 279 299 314 300 279 260 252 249 236 217 213 296 264 225 222 237 274 324 360 3 317 296 294 296 291 293 308 324 338 2 345 337 338 324 307 341 358 22 53 24 45 4 340 347 17 25 18 27 35 30 22 10 9 20 2 340 13 25 16 11 10
255 259 267 278 288 291 289 284 280 279 277 275 278 287 291 293 303 323 329 302 279 303 309 301 281 275 298 312 308 301 292 277 266 255 235 216 210 225 249 233 225 260 303 342 6 14 324 282 285 294 294 306 341 350 332 348 346 342 359 1 325 330 357 20 20 14 34 355 337 345 27 37 23 15 24 27 19 13 15 11 351 7 59 56 42 34 23
251 255 261 274 288 291 287 281 279 278 278 279 282 285 289 294 303 309 300 285 274 266 283 293 281 294 318 317 309 307 307 289 268 250 237 228 224 228 241 261 278 290 310 336 334 298 248 250 265 260 269 299 15 350 306 314 338 332 356 348 308 309 352 2 3 17 21 356 354 351 8 30 18 8 13 16 8 17 24 14 4 14 41 54 53 48 42
247 250 253 265 284 292 289 283 284 289 289 285 285 288 290 297 304 298 275 260 268 294 301 284 286 305 312 308 304 313 313 295 275 254 243 238 233 232 238 252 268 284 305 308 285 241 211 267 267 221 229 273 335 308 258 228 347 314 349 344 332 1 18 356 1 50 33 344 348 350 5 28 1 355 13 14 1 19 33 19 2 3 18 35 50 55 54
241 242 245 260 278 283 281 281 296 302 299 295 299 303 301 302 310 299 248 211 197 265 288 272 289 304 308 302 306 317 316 304 286 262 247 242 236 231 231 236 240 247 265 273 280 269 210 249 258 234 238 291 316 302 288 338 36 22 6 355 357 31 27 3 22 61 17 325 329 335 8 48 356 354 15 14 4 27 39 19 351 360 17 23 33 56 63
233 234 239 258 273 268 256 265 290 296 299 307 314 317 315 328 344 337 185 180 203 256 284 295 289 292 303 306 309 314 317 313 299 274 255 244 233 226 224 224 221 203 194 215 261 264 244 239 239 242 261 285 294 312 335 3 20 17 5 356 358 34 38 24 29 43 358 355 357 351 17 41 17 9 16 12 6 20 33 23 8 13 25 28 28 44 65
226 228 237 256 265 254 243 249 272 291 306 317 326 336 18 31 12 72 121 116 43 317 301 307 301 296 304 304 302 307 315 320 317 295 264 239 224 223 221 212 196 177 181 206 233 232 246 264 263 262 272 269 238 350 355 358 2 4 1 357 1 18 30 26 29 52 62 11 360 15 47 33 1 7 20 12 1 360 8 20 18 13 22 40 39 35 47
219 221 234 253 255 246 240 240 263 294 306 317 336 30 67 338 199 143 136 106 360 348 320 265 282 296 302 293 282 300 310 315 320 313 290 257 224 216 204 188 171 168 177 194 220 217 234 264 282 292 293 108 108 97 52 38 17 352 351 358 5 11 15 16 23 41 69 332 354 50 50 23 359 20 21 1 350 353 1 7 9 8 19 42 50 46 44
215 216 232 249 245 235 234 239 258 281 289 293 288 271 268 270 253 217 208 264 318 339 336 293 303 309 310 300 288 297 306 307 312 324 315 302 339 165 171 163 167 182 172 158 201 240 224 213 263 296 309 88 93 87 68 61 37 339 333 348 8 14 17 19 13 11 11 352 73 67 44 19 13 22 1 336 343 358 1 354 358 12 28 39 41 40 42
209 213 226 235 234 237 242 247 256 267 276 284 287 287 286 275 255 239 238 259 291 303 165 296 318 293 284 304 304 317 327 320 324 350 339 312 4 60 152 142 129 177 185 180 213 241 231 163 265 299 309 41 79 82 57 18 353 327 318 332 14 26 23 24 24 22 20 23 60 95 94 29 353 355 344 349 4 11 9 1 0 17 34 39 31 25 29
203 210 217 222 234 247 246 248 261 271 279 284 288 297 311 242 228 225 220 220 231 358 169 306 317 286 297 320 315 339 357 346 325 349 339 312 336 9 293 307 34 145 201 214 220 335 334 265 233 310 336 1 36 64 32 339 332 329 325 333 2 17 21 28 28 22 16 24 49 74 96 133 51 27 21 18 13 13 18 18 13 22 37 37 25 15 19
198 205 208 211 227 243 248 261 273 276 280 283 284 314 71 233 255 214 192 181 136 40 309 344 309 291 324 338 304 323 352 351 299 289 288 295 332 5 75 321 349 4 201 212 36 2 326 242 159 17 346 357 23 29 330 320 322 325 329 339 352 2 26 46 31 9 5 33 51 47 40 47 49 37 27 17 8 15 27 24 18 27 38 33 22 20 24
195 194 192 200 223 245 260 266 260 249 257 287 303 23 52 359 77 115 155 170 161 200 225 11 261 238 282 299 275 313 346 343 297 288 286 298 326 350 74 52 344 296 264 50 32 346 301 243 95 25 357 23 40 293 287 306 314 318 326 333 344 13 49 68 50 24 29 44 48 39 38 48 47 32 25 17 3 17 36 30 21 29 35 29 23 24 22
183 176 180 193 212 250 267 246 229 228 257 284 268 91 82 79 84 95 122 180 247 220 195 283 261 223 171 243 263 312 345 330 311 329 330 316 317 326 35 42 321 285 2 23 9 341 327 9 76 66 34 31 269 272 292 315 312 308 312 309 315 20 50 40 47 60 52 44 40 33 36 44 36 21 23 21 8 14 28 23 15 28 37 28 22 23 21
169 170 172 168 160 224 250 217 197 174 246 215 185 136 40 71 82 73 45 350 301 267 206 229 252 231 136 245 264 295 321 310 347 359 323 294 310 318 2 35 307 298 3 330 272 269 24 25 57 82 74 295 294 301 324 335 322 309 314 307 309 356 36 22 33 67 68 44 17 11 36 51 41 18 13 20 15 12 9 358 2 29 41 32 21 22 26
162 162 156 152 178 206 161 133 100 87 119 160 163 181 337 35 53 12 309 352 314 285 233 222 248 224 185 230 274 283 253 297 2 356 321 313 334 330 344 347 308 352 35 319 283 29 66 21 14 52 14 326 328 331 334 334 330 335 344 330 321 342 31 49 49 71 94 91 15 332 98 92 70 37 25 29 28 19 9 7 21 34 38 34 29 28 26
163 158 147 170 193 163 140 125 78 64 109 105 43 57 54 32 85 186 319 16 337 256 211 198 246 238 194 211 273 279 230 225 333 329 301 291 289 318 8 301 277 21 41 312 301 36 88 70 14 34 10 327 323 325 328 330 324 320 333 343 336 338 6 51 58 64 87 90 62 48 66 84 85 65 48 46 45 32 17 11 26 43 49 44 36 32 28
168 164 158 173 167 153 153 162 40 63 99 63 22 48 55 299 255 189 68 37 280 264 240 160 295 290 236 193 219 253 252 244 202 120 76 293 285 25 8 291 278 54 32 289 310 44 75 63 28 360 289 301 311 314 321 328 325 319 324 343 348 341 345 15 39 45 53 55 42 37 48 67 82 80 70 68 66 50 26 10 21 46 58 54 41 38 43
167 163 152 150 149 147 156 166 125 88 79 53 14 309 261 269 248 229 50 225 235 258 251 178 195 242 226 185 187 225 248 259 77 89 66 288 280 57 354 299 6 58 359 277 352 49 60 46 15 303 280 301 315 316 318 323 321 315 310 314 339 345 339 350 21 37 45 49 45 43 53 63 65 65 67 73 70 54 35 23 24 49 68 68 59 54 55
157 153 136 115 123 115 101 146 138 95 64 77 71 314 310 308 278 249 269 268 259 260 252 240 255 290 269 207 208 242 252 266 5 67 97 280 298 35 38 358 13 27 328 345 48 55 57 59 12 300 297 310 317 315 313 315 317 311 299 297 323 345 340 340 2 19 26 39 50 55 55 53 52 55 58 59 58 54 48 49 56 69 78 78 70 61 59
144 138 106 64 87 93 87 181 150 117 152 204 180 175 222 274 281 220 225 265 272 259 245 242 306 341 301 270 269 299 280 277 14 29 304 303 341 42 42 323 287 297 7 37 53 57 73 160 247 288 308 321 322 317 316 322 331 326 308 304 328 352 353 355 5 13 18 28 44 61 65 57 55 57 52 47 51 63 65 62 68 75 78 77 72 62 59
135 113 83 59 360 258 160 234 331 167 201 214 196 178 181 194 208 213 214 210 212 267 282 247 165 213 273 278 319 345 291 317 15 352 320 360 12 8 258 267 300 32 46 40 23 16 343 287 295 317 326 324 322 323 322 324 330 324 306 305 326 348 352 347 342 354 12 14 18 36 48 38 38 49 50 46 52 66 69 61 61 67 70 70 67 60 56
137 133 113 111 224 227 180 185 236 217 208 207 193 187 187 190 204 226 230 200 204 270 288 256 157 176 271 290 344 14 360 28 12 308 93 78 35 272 244 290 35 41 53 54 40 37 327 292 308 328 325 317 317 320 314 310 320 331 324 308 307 320 332 326 315 324 349 355 350 4 32 42 48 58 57 55 61 71 76 76 76 74 69 66 61 55 55
131 113 105 113 209 234 176 203 213 210 210 207 198 199 206 217 236 251 243 210 222 257 274 243 142 238 292 300 330 326 345 37 5 300 354 81 339 289 330 47 39 6 9 45 50 23 305 308 325 327 317 314 319 317 311 311 324 340 341 317 290 291 309 310 308 324 340 335 334 4 33 50 61 65 60 62 70 79 82 79 79 77 75 75 72 62 55
153 148 132 149 183 194 202 217 237 251 241 233 235 238 233 239 276 274 255 222 213 225 225 164 65 329 325 354 34 306 318 14 29 303 340 72 66 341 4 29 359 306 346 15 360 323 305 310 316 312 310 315 317 311 312 326 332 336 338 322 290 275 272 276 295 324 329 302 305 355 24 67 120 107 91 81 79 80 75 69 70 76 80 81 76 66 57
114 126 149 161 176 209 208 191 22 305 279 275 296 296 257 207 236 255 255 220 188 209 207 172 138 181 280 309 45 48 331 342 18 355 13 39 60 35 341 342 321 326 337 314 296 300 299 300 308 311 312 316 316 313 319 329 328 327 327 313 290 265 242 244 283 303 289 266 265 27 127 194 166 133 118 106 88 81 80 75 65 64 67 61 52 50 50
95 125 165 154 152 261 263 112 94 290 298 325 341 319 300 278 266 269 258 168 134 61 36 55 78 71 309 360 44 29 312 278 95 69 36 28 165 190 204 302 311 313 313 296 286 287 293 302 314 316 312 314 319 321 322 326 328 328 326 321 308 280 243 240 273 286 275 263 225 161 193 198 181 158 154 159 147 127 117 103 66 50 55 53 45 43 43
181 224 243 198 175 182 175 144 172 232 272 300 293 279 295 301 271 274 292 72 78 56 40 23 94 43 38 44 48 327 273 354 66 55 310 233 201 159 165 263 258 241 259 278 277 275 287 303 317 319 317 319 321 314 309 322 337 337 334 335 337 327 270 245 256 270 277 275 216 205 225 226 210 211 209 184 163 155 148 132 97 64 65 64 52 45 42
157 195 242 238 175 149 139 134 192 228 240 248 245 234 228 242 249 262 347 58 79 87 131 184 107 71 53 229 208 168 46 41 32 15 261 233 198 168 185 218 230 216 220 251 270 283 302 319 325 318 312 314 314 309 309 330 350 348 341 340 344 342 310 266 260 268 280 283 212 228 259 274 219 201 195 176 168 177 183 169 159 157 135 99 72 55 47